Location: Star Hoppers Observatory
(42.7905°N, 83.6127°W)
Time: 05:20:31
(UTC-04:00)

Amateur Radio Satellites - All Passes

Search period start: 01 April 2015 04:50
Search period end: 02 April 2015 04:50
Location: Star Hoppers Observatory, 42.7905°N, 83.6127°W

Satellite Date Start Highest point End Downlink Frequencies (MHz)
Time Altitude Azimuth
M-CUBED/EXP-1 PRIME 01 Apr 04:52:59 04:56:08 21° 60° (ENE) 04:59:35 437.505
STARS 01 Apr 04:54:21 04:57:34 19° 268° (W) 05:00:41 437.465
HORYU 2 01 Apr 04:55:16 04:59:38 48° 99° (E) 05:04:01 437.375
VERMONT LUNAR 01 Apr 04:55:31 04:57:55 19° 154° (SSE) 05:00:22 437.305
ITAMSAT 1 01 Apr 05:15:43 05:19:56 25° 295° (WNW) 05:24:02 435.822/435.867
ISS 01 Apr 05:22:12 05:25:22 52° 218° (SW) 05:28:30 145.825
AIST 1 01 Apr 05:32:08 05:36:14 37° 284° (WNW) 05:40:19
AO-7 01 Apr 05:35:08 05:43:19 60° 103° (ESE) 05:51:30 29.400- 29.500
RS-15 01 Apr 05:42:37 05:53:45 56° 246° (WSW) 06:05:14 29.354- 29.394
JAS-2 01 Apr 05:44:41 05:52:25 70° 101° (E) 05:59:26 435.910
GONETS M04 01 Apr 05:56:53 06:04:02 28° 64° (ENE) 06:11:27
AUBIESAT-1 01 Apr 05:59:25 06:03:32 89° 88° (E) 06:08:05 437.475
PHONESAT 2.4 01 Apr 05:59:56 06:02:48 23° 156° (SSE) 06:05:42 2401.200-2431.200
O/OREOS (USA 219) 01 Apr 06:00:16 06:03:36 19° 308° (NW) 06:06:50 437.305
PRISM 01 Apr 06:17:15 06:20:05 18° 66° (ENE) 06:23:04 437.425
MOZHAYETS 4 01 Apr 06:24:19 06:28:13 26° 267° (W) 06:32:04
M-CUBED/EXP-1 PRIME 01 Apr 06:26:51 06:30:45 41° 258° (WSW) 06:34:58 437.505
VERMONT LUNAR 01 Apr 06:31:58 06:35:12 48° 170° (S) 06:38:27 437.305
HORYU 2 01 Apr 06:32:50 06:35:58 18° 296° (WNW) 06:38:59 437.375
CUBESAT XI-V 01 Apr 06:41:50 06:46:15 41° 71° (ENE) 06:50:41 437.345
STRAND 1 01 Apr 07:02:29 07:07:14 40° 69° (ENE) 07:12:03 437.568
CUSAT 1 01 Apr 07:05:04 07:07:34 15° 70° (ENE) 07:10:40 437.405
AO-7 01 Apr 07:28:31 07:35:46 34° 302° (WNW) 07:42:53 29.400- 29.500
JAS-2 01 Apr 07:30:32 07:36:47 27° 300° (WNW) 07:42:31 435.910
PHONESAT 2.4 01 Apr 07:37:20 07:40:47 54° 173° (S) 07:44:15 2401.200-2431.200
PRISM 01 Apr 07:51:17 07:55:18 42° 261° (W) 07:59:20 437.425
GONETS M04 01 Apr 07:53:00 08:01:47 70° 266° (W) 08:10:31
CUTE-I 01 Apr 07:57:51 08:03:11 74° 102° (ESE) 08:08:30 437.470
Cubesat XI-IV 01 Apr 07:58:57 08:04:19 77° 103° (ESE) 08:09:38 437.490
VERMONT LUNAR 01 Apr 08:09:26 08:12:43 54° 187° (S) 08:16:00 437.305
DANDE 01 Apr 08:11:37 08:15:39 44° 78° (ENE) 08:21:04 436.750
CUBESAT XI-V 01 Apr 08:20:15 08:23:53 21° 268° (W) 08:27:25 437.345
STRAND 1 01 Apr 08:42:18 08:46:36 26° 266° (W) 08:50:49 437.568
CUSAT 1 01 Apr 08:45:57 08:50:28 67° 262° (W) 08:56:31 437.405
PHONESAT 2.4 01 Apr 09:15:31 09:18:57 52° 189° (S) 09:22:24 2401.200-2431.200
SEEDS 01 Apr 09:17:32 09:18:42 11° 87° (E) 09:20:06 437.485
COMPASS 1 01 Apr 09:34:20 09:36:33 14° 89° (E) 09:38:57 437.405
CUTE-I 01 Apr 09:39:26 09:42:43 16° 299° (WNW) 09:45:49 437.470
Cubesat XI-IV 01 Apr 09:40:38 09:43:51 16° 300° (WNW) 09:46:51 437.490
BRITE-PL 01 Apr 09:43:04 09:47:11 48° 99° (E) 09:51:31 437.365/2234.400
VERMONT LUNAR 01 Apr 09:47:18 09:50:04 24° 203° (SSW) 09:52:50 437.305
DOVE 4 01 Apr 09:48:11 09:51:48 25° 94° (E) 09:55:39 437.250
HO-68 01 Apr 09:52:19 09:59:04 42° 98° (E) 10:05:50 435.675
GONETS M04 01 Apr 09:53:22 09:57:09 13° 285° (WNW) 10:00:17
DANDE 01 Apr 09:55:40 09:58:57 19° 265° (W) 10:02:42 436.750
UNISAT 6 01 Apr 09:55:54 09:56:56 11° 61° (ENE) 09:58:12 437.425
TIGRISAT 01 Apr 10:03:46 10:05:37 13° 63° (ENE) 10:07:42 435.000
BEESAT 2 01 Apr 10:05:10 10:08:46 30° 115° (ESE) 10:12:26 435.950
CANX-2 01 Apr 10:12:44 10:17:02 61° 100° (E) 10:21:19 2200.000
GOMX 1 01 Apr 10:13:48 10:18:07 69° 101° (E) 10:22:40 467.674
UWE-3 01 Apr 10:22:27 10:24:39 14° 89° (E) 10:27:05 435.000/436.395/437.385
ZACube-1 01 Apr 10:24:43 10:26:03 11° 87° (E) 10:27:40 437.345
CUTE 1.7 + AOD 2 01 Apr 10:26:10 10:30:31 79° 102° (ESE) 10:34:49 437.475
CUBEBUG 2 01 Apr 10:33:07 10:36:33 22° 93° (E) 10:40:09 437.445
ANTELSAT 01 Apr 10:33:47 10:37:21 27° 68° (ENE) 10:41:03 437.575/2403.000
BEESAT 3 01 Apr 10:37:53 10:41:58 80° 123° (ESE) 10:46:08 437.485
AAUSAT CUBESAT 2 01 Apr 10:38:37 10:42:51 64° 100° (E) 10:47:02 437.432
POPSAT HIP 1 01 Apr 10:38:50 10:41:20 16° 65° (ENE) 10:43:58 437.405
CINEMA 3 01 Apr 10:41:29 10:45:49 48° 99° (E) 10:50:20 145.822/145.860
NANOSAT C BR1 01 Apr 10:47:33 10:50:31 19° 66° (ENE) 10:53:35 145.865
SEEDS 01 Apr 10:50:46 10:55:03 67° 285° (WNW) 10:59:17 437.485
HUMSAT D 01 Apr 10:51:25 10:51:53 10° 87° (E) 10:52:39 437.325/437.525
PHONESAT 2.4 01 Apr 10:54:09 10:56:55 21° 205° (SSW) 10:59:40 2401.200-2431.200
POLYITAN 1 01 Apr 10:54:20 10:57:38 23° 68° (ENE) 11:01:01 437.675
UKube-1 01 Apr 11:00:16 11:03:12 18° 92° (E) 11:06:15 .
COMPASS 1 01 Apr 11:08:28 11:12:37 51° 287° (WNW) 11:16:44 437.405
DX 1 01 Apr 11:14:12 11:17:53 27° 95° (E) 11:21:36 434.975-435.025
BRITE-PL 01 Apr 11:22:48 11:25:29 16° 294° (WNW) 11:28:04 437.365/2234.400
DOVE 4 01 Apr 11:25:44 11:29:37 32° 289° (WNW) 11:33:39 437.250
Oscar 11 01 Apr 11:27:37 11:32:01 80° 284° (WNW) 11:36:22 145.826/435.025
DUCHIFAT 1 01 Apr 11:28:41 11:32:45 51° 73° (ENE) 11:36:51 145.980
QB50P1 01 Apr 11:28:42 11:32:48 53° 73° (ENE) 11:36:55 145.935-145.965
UNISAT 6 01 Apr 11:28:52 11:33:09 79° 257° (WSW) 11:37:31 437.425
DELFI C3 01 Apr 11:33:53 11:38:01 85° 285° (WNW) 11:42:07 145.870
AIST 2 01 Apr 11:34:57 11:39:13 90° 300° (WNW) 11:43:33 435.215
TIGRISAT 01 Apr 11:37:40 11:41:53 65° 259° (W) 11:46:12 435.000
HO-68 01 Apr 11:40:09 11:46:47 40° 296° (WNW) 11:53:20 435.675
BEESAT 2 01 Apr 11:43:14 11:46:54 29° 313° (NW) 11:50:34 435.950
FUNcube-1 01 Apr 11:44:23 11:48:49 81° 104° (ESE) 11:53:19 145.935
QB50P2 01 Apr 11:44:33 11:48:47 82° 75° (ENE) 11:53:01 145.880/145.840
CANX-2 01 Apr 11:50:15 11:52:32 14° 296° (WNW) 11:54:38 2200.000
GOMX 1 01 Apr 11:53:58 11:55:53 12° 296° (WNW) 11:57:37 467.674
BUGSAT 1 01 Apr 11:54:40 11:58:48 75° 75° (ENE) 12:02:54 437.445
UWE-3 01 Apr 11:57:14 12:01:36 59° 286° (WNW) 12:06:05 435.000/436.395/437.385
CUBEBUG 1 01 Apr 11:58:22 12:01:04 16° 91° (E) 12:03:53 437.445
ZACube-1 01 Apr 11:58:34 12:02:58 70° 285° (WNW) 12:07:27 437.345
CUTE 1.7 + AOD 2 01 Apr 12:04:33 12:05:53 11° 298° (WNW) 12:06:59 437.475
VELOX 1 01 Apr 12:06:45 12:10:57 43° 99° (E) 12:15:10 145.980
CUBEBUG 2 01 Apr 12:09:15 12:13:23 37° 289° (WNW) 12:17:35 437.445
ANTELSAT 01 Apr 12:10:23 12:14:07 28° 265° (W) 12:17:51 437.575/2403.000
POPSAT HIP 1 01 Apr 12:12:47 12:16:52 49° 261° (W) 12:20:59 437.405
AISAT 01 Apr 12:12:47 12:17:06 52° 100° (E) 12:21:25 437.250
AAUSAT CUBESAT 2 01 Apr 12:16:00 12:18:01 13° 296° (WNW) 12:19:51 437.432
BEESAT 3 01 Apr 12:18:09 12:20:37 15° 322° (NW) 12:22:59 437.485
CINEMA 3 01 Apr 12:19:39 12:22:45 18° 293° (WNW) 12:25:48 145.822/145.860
NANOSAT C BR1 01 Apr 12:22:12 12:26:09 38° 262° (W) 12:30:06 145.865
HUMSAT D 01 Apr 12:23:58 12:28:14 72° 285° (WNW) 12:32:31 437.325/437.525
POLYITAN 1 01 Apr 12:29:39 12:33:26 31° 264° (W) 12:37:12 437.675
50 SAT 01 Apr 12:32:58 12:37:02 85° 286° (WNW) 12:41:06 437.505
UKube-1 01 Apr 12:35:29 12:39:35 41° 289° (WNW) 12:43:38 .
YUBILEINY 01 Apr 12:47:41 12:52:54 18° 78° (ENE) 12:58:38 435.215
DX 1 01 Apr 12:50:22 12:54:07 28° 292° (WNW) 12:57:48 434.975-435.025
O/OREOS (USA 219) 01 Apr 12:50:37 12:53:05 15° 49° (NE) 12:55:41 437.305
ESTCUBE 1 01 Apr 12:53:10 12:57:42 73° 102° (ESE) 13:02:11 437.505/2401.250
DUCHIFAT 1 01 Apr 13:06:41 13:08:58 14° 270° (W) 13:11:04 145.980
QB50P1 01 Apr 13:06:51 13:09:04 14° 271° (W) 13:11:06 145.935-145.965
TISAT 1 01 Apr 13:07:57 13:11:02 20° 93° (E) 13:14:13 437.305
AIST 2 01 Apr 13:16:02 13:18:29 14° 323° (NW) 13:20:50 435.215
ITAMSAT 1 01 Apr 13:20:10 13:20:51 10° 57° (ENE) 13:21:49 435.822/435.867
FUNcube-1 01 Apr 13:23:10 13:24:37 11° 297° (WNW) 13:25:51 145.935
SPROUT 01 Apr 13:29:43 13:33:48 42° 98° (E) 13:37:53 437.525
CUBEBUG 1 01 Apr 13:33:35 13:37:44 45° 288° (WNW) 13:41:51 437.445
Oscar 19 01 Apr 13:41:50 13:46:40 46° 71° (ENE) 13:51:36 437.125/150
VELOX 1 01 Apr 13:44:06 13:47:15 19° 295° (WNW) 13:50:18 145.980
AISAT 01 Apr 13:50:32 13:53:21 16° 296° (WNW) 13:56:01 437.250
SWISSCUBE 01 Apr 13:50:46 13:51:26 10° 86° (E) 13:52:26 437.505
BEESAT 01 Apr 13:53:35 13:53:47 10° 86° (E) 13:54:18 436.000
Gurwin Techsat 1B 01 Apr 14:24:01 14:28:37 32° 67° (ENE) 14:33:19 435.225
O/OREOS (USA 219) 01 Apr 14:28:33 14:33:06 71° 250° (WSW) 14:37:35 437.305
ESTCUBE 1 01 Apr 14:31:57 14:34:03 13° 298° (WNW) 14:35:56 437.505/2401.250
ITUPSAT 1 01 Apr 14:39:17 14:43:30 31° 95° (E) 14:47:45 437.325
YUBILEINY 01 Apr 14:39:48 14:48:38 89° 93° (E) 14:57:32 435.215
TISAT 1 01 Apr 14:43:07 14:46:58 35° 290° (WNW) 14:50:47 437.305
AO-7 01 Apr 14:45:40 14:51:14 21° 51° (NE) 14:57:05 29.400- 29.500
ITAMSAT 1 01 Apr 14:54:21 14:59:32 72° 74° (ENE) 15:04:46 435.822/435.867
SPROUT 01 Apr 15:06:36 15:09:37 18° 294° (WNW) 15:12:31 437.525
PCSat 01 Apr 15:08:24 15:13:48 77° 118° (ESE) 15:19:15 145.827
Oscar 19 01 Apr 15:22:19 15:26:19 22° 268° (W) 15:30:13 437.125/150
SWISSCUBE 01 Apr 15:25:14 15:30:03 84° 287° (WNW) 15:34:50 437.505
BEESAT 01 Apr 15:27:35 15:32:25 86° 283° (WNW) 15:37:10 436.000
AIST 1 01 Apr 15:38:12 15:42:27 56° 79° (E) 15:46:39
HORYU 2 01 Apr 15:54:20 15:58:36 49° 72° (ENE) 16:02:56 437.375
JAS-2 01 Apr 15:56:39 16:03:01 37° 64° (ENE) 16:09:59 435.910
Gurwin Techsat 1B 01 Apr 16:03:42 16:08:34 35° 264° (W) 16:13:24 435.225
ITUPSAT 1 01 Apr 16:17:11 16:21:23 30° 292° (WNW) 16:25:29 437.325
KKS-1 01 Apr 16:17:52 16:22:18 62° 101° (E) 16:26:43 437.445
AO-7 01 Apr 16:34:41 16:43:00 83° 71° (ENE) 16:51:21 29.400- 29.500
ITAMSAT 1 01 Apr 16:36:44 16:39:41 14° 272° (W) 16:42:22 435.822/435.867
YUBILEINY 01 Apr 16:40:26 16:46:55 21° 301° (WNW) 16:53:01 435.215
STARS 01 Apr 16:41:46 16:46:11 72° 102° (ESE) 16:50:35 437.465
PCSat 01 Apr 16:53:50 16:57:53 20° 319° (NW) 17:01:49 145.827
SWISSCUBE 01 Apr 17:06:01 17:07:14 11° 301° (WNW) 17:08:10 437.505
BEESAT 01 Apr 17:08:10 17:09:35 11° 301° (WNW) 17:10:44 436.000
AIST 1 01 Apr 17:17:47 17:19:39 12° 275° (W) 17:21:18
BEESAT 3 01 Apr 17:20:37 17:21:24 10° 33° (NNE) 17:22:20 437.485
HORYU 2 01 Apr 17:32:45 17:35:36 16° 270° (W) 17:38:19 437.375
JAS-2 01 Apr 17:40:59 17:47:50 50° 264° (W) 17:55:17 435.910
CUTE-I 01 Apr 17:42:47 17:46:21 19° 62° (ENE) 17:50:05 437.470
Cubesat XI-IV 01 Apr 17:43:55 17:47:35 20° 62° (ENE) 17:51:25 437.490
KKS-1 01 Apr 17:56:02 17:58:30 14° 297° (WNW) 18:00:48 437.445
RS-15 01 Apr 17:58:23 18:05:54 23° 103° (ESE) 18:14:02 29.354- 29.394
M-CUBED/EXP-1 PRIME 01 Apr 18:08:41 18:11:39 17° 94° (E) 18:14:44 437.505
MOZHAYETS 4 01 Apr 18:17:41 18:22:21 71° 101° (ESE) 18:26:58
AIST 2 01 Apr 18:19:11 18:21:01 13° 35° (NE) 18:22:59 435.215
STARS 01 Apr 18:20:11 18:22:08 12° 298° (WNW) 18:23:53 437.465
BEESAT 2 01 Apr 18:23:43 18:27:17 27° 46° (NE) 18:30:50 435.950
AO-7 01 Apr 18:30:45 18:36:53 21° 271° (W) 18:42:37 29.400- 29.500
SO-50 01 Apr 18:54:12 18:58:41 53° 119° (ESE) 19:03:22 436.795
BEESAT 3 01 Apr 18:56:16 19:00:22 62° 54° (NE) 19:04:24 437.485
GONETS M04 01 Apr 18:59:54 19:06:53 29° 84° (E) 19:14:10
STRAND 1 01 Apr 19:14:17 19:16:02 12° 87° (E) 19:18:06 437.568
AUBIESAT-1 01 Apr 19:14:31 19:19:21 66° 106° (ESE) 19:23:58 437.475
CUTE-I 01 Apr 19:20:40 19:25:59 64° 258° (WSW) 19:31:20 437.470
Cubesat XI-IV 01 Apr 19:21:57 19:27:16 62° 259° (WSW) 19:32:37 437.490
PRISM 01 Apr 19:33:27 19:36:50 24° 94° (E) 19:40:15 437.425
M-CUBED/EXP-1 PRIME 01 Apr 19:42:08 19:46:58 61° 292° (WNW) 19:51:36 437.505
AIST 2 01 Apr 19:56:09 20:00:26 76° 55° (NE) 20:04:37 435.215
MOZHAYETS 4 01 Apr 19:56:39 19:59:03 14° 298° (WNW) 20:01:15
BEESAT 2 01 Apr 20:01:43 20:05:28 33° 244° (WSW) 20:09:07 435.950
RS-15 01 Apr 20:06:01 20:16:57 89° 305° (NW) 20:28:08 29.354- 29.394
CUBESAT XI-V 01 Apr 20:14:48 20:19:28 88° 284° (WNW) 20:24:04 437.345
HO-68 01 Apr 20:22:00 20:28:16 35° 62° (ENE) 20:34:40 435.675
COMPASS 1 01 Apr 20:27:45 20:29:15 12° 63° (ENE) 20:30:56 437.405
SO-50 01 Apr 20:35:42 20:39:34 24° 319° (NW) 20:43:28 436.795
BEESAT 3 01 Apr 20:35:57 20:37:58 13° 250° (WSW) 20:39:46 437.485
AUBIESAT-1 01 Apr 20:50:28 20:53:39 17° 302° (WNW) 20:56:39 437.475
STRAND 1 01 Apr 20:50:52 20:55:59 82° 287° (WNW) 21:01:06 437.568
GONETS M04 01 Apr 20:54:36 21:03:13 62° 283° (WNW) 21:11:53
BRITE-PL 01 Apr 20:54:56 20:59:27 63° 75° (ENE) 21:03:43 437.365/2234.400
DOVE 4 01 Apr 20:55:20 20:58:52 26° 69° (ENE) 21:02:23 437.250
CANX-2 01 Apr 21:06:27 21:10:31 47° 73° (ENE) 21:14:39 2200.000
PRISM 01 Apr 21:08:41 21:12:21 29° 291° (WNW) 21:15:54 437.425
CUTE 1.7 + AOD 2 01 Apr 21:19:42 21:23:53 61° 74° (ENE) 21:28:06 437.475
UWE-3 01 Apr 21:21:51 21:23:24 12° 63° (ENE) 21:25:09 435.000/436.395/437.385
GOMX 1 01 Apr 21:23:07 21:27:31 81° 76° (ENE) 21:31:45 467.674
DANDE 01 Apr 21:28:01 21:30:42 38° 98° (E) 21:33:10 436.750
AAUSAT CUBESAT 2 01 Apr 21:30:15 21:34:15 47° 73° (ENE) 21:38:19 437.432
CUBEBUG 2 01 Apr 21:33:08 21:36:02 19° 67° (ENE) 21:39:04 437.445
AIST 2 01 Apr 21:37:10 21:38:28 11° 251° (WSW) 21:39:33 435.215
SEEDS 01 Apr 21:43:24 21:47:38 87° 256° (WSW) 21:51:55 437.485
CINEMA 3 01 Apr 21:44:34 21:48:32 45° 73° (ENE) 21:52:32 145.822/145.860
CUBESAT XI-V 01 Apr 21:55:15 21:56:15 10° 299° (WNW) 21:56:59 437.345
UKube-1 01 Apr 21:56:21 21:59:18 19° 65° (ENE) 22:02:23 .
CUSAT 1 01 Apr 21:58:47 22:01:16 33° 284° (WNW) 22:03:41 437.405
COMPASS 1 01 Apr 22:00:16 22:04:26 69° 259° (W) 22:08:40 437.405
ISS 01 Apr 22:01:43 22:04:33 28° 137° (SE) 22:07:25 145.825
HO-68 01 Apr 22:08:55 22:15:49 49° 261° (W) 22:22:45 435.675
DX 1 01 Apr 22:10:45 22:14:24 27° 68° (ENE) 22:18:07 434.975-435.025
PCSat 01 Apr 22:13:32 22:16:30 15° 36° (NE) 22:19:39 145.827
RS-15 01 Apr 22:21:20 22:31:03 34° 331° (NNW) 22:40:54 29.354- 29.394
DELFI C3 01 Apr 22:22:11 22:26:13 65° 75° (ENE) 22:30:17 145.870
Oscar 11 01 Apr 22:22:56 22:27:15 86° 82° (E) 22:31:37 145.826/435.025
STRAND 1 01 Apr 22:32:43 22:34:28 11° 302° (WNW) 22:35:58 437.568
DOVE 4 01 Apr 22:33:01 22:36:39 26° 265° (W) 22:40:09 437.250
BRITE-PL 01 Apr 22:36:29 22:38:26 12° 271° (W) 22:40:07 437.365/2234.400
FUNcube-1 01 Apr 22:41:07 22:45:13 69° 75° (ENE) 22:49:24 145.935
CANX-2 01 Apr 22:44:11 22:46:48 15° 270° (W) 22:49:16 2200.000
UWE-3 01 Apr 22:55:22 22:59:28 64° 259° (W) 23:03:38 435.000/436.395/437.385
ZACube-1 01 Apr 22:55:27 22:59:36 80° 258° (WSW) 23:03:48 437.345
CUBEBUG 1 01 Apr 22:55:48 22:58:32 17° 65° (ENE) 23:01:25 437.445
CUTE 1.7 + AOD 2 01 Apr 22:58:30 23:00:18 12° 272° (W) 23:01:53 437.475
GONETS M04 01 Apr 22:58:36 23:02:27 13° 308° (NW) 23:05:43
VELOX 1 01 Apr 23:05:10 23:09:22 43° 71° (ENE) 23:13:36 145.980
AAUSAT CUBESAT 2 01 Apr 23:07:40 23:10:13 15° 270° (W) 23:12:37 437.432
CUBEBUG 2 01 Apr 23:08:40 23:12:32 37° 263° (W) 23:16:25 437.445
AISAT 01 Apr 23:11:24 23:15:42 52° 73° (ENE) 23:20:02 437.250
HUMSAT D 01 Apr 23:16:34 23:20:39 88° 79° (ENE) 23:24:49 437.325/437.525
50 SAT 01 Apr 23:19:39 23:23:30 61° 74° (ENE) 23:27:25 437.505
UNISAT 6 01 Apr 23:20:31 23:23:59 21° 92° (E) 23:27:36 437.425
CINEMA 3 01 Apr 23:23:39 23:26:05 15° 270° (W) 23:28:23 145.822/145.860
TIGRISAT 01 Apr 23:28:45 23:32:30 25° 94° (E) 23:36:23 435.000
QB50P2 01 Apr 23:31:02 23:32:49 13° 89° (E) 23:34:50 145.880/145.840
UKube-1 01 Apr 23:31:02 23:35:11 43° 261° (W) 23:39:20 .
ISS 01 Apr 23:37:46 23:40:52 40° 334° (NNW) 23:43:58 145.825
DX 1 01 Apr 23:46:47 23:50:37 28° 265° (W) 23:54:23 434.975-435.025
ESTCUBE 1 01 Apr 23:53:23 23:57:56 74° 75° (ENE) 00:02:30 437.505/2401.250
PCSat 01 Apr 23:55:33 00:00:59 72° 57° (ENE) 00:06:24 145.827
POPSAT HIP 1 01 Apr 23:57:36 00:01:03 24° 94° (E) 00:04:33 437.405
ANTELSAT 02 Apr 00:00:32 00:05:04 54° 99° (E) 00:09:41 437.575/2403.000
DELFI C3 02 Apr 00:01:00 00:01:55 10° 273° (W) 00:02:34 145.870
TISAT 1 02 Apr 00:01:36 00:04:25 18° 66° (ENE) 00:07:21 437.305
NANOSAT C BR1 02 Apr 00:06:24 00:10:07 30° 96° (E) 00:13:53 145.865
POLYITAN 1 02 Apr 00:13:58 00:17:55 37° 97° (E) 00:21:55 437.675
SPROUT 02 Apr 00:24:45 00:28:40 36° 71° (ENE) 00:32:38 437.525
CUBEBUG 1 02 Apr 00:30:17 00:34:35 50° 261° (W) 00:38:51 437.445
RS-15 02 Apr 00:39:34 00:48:02 24° 5° (N) 00:56:49 29.354- 29.394
VELOX 1 02 Apr 00:43:03 00:46:12 18° 269° (W) 00:49:12 145.980
DUCHIFAT 1 02 Apr 00:48:16 00:52:31 88° 102° (ESE) 00:56:45 145.980
QB50P1 02 Apr 00:48:41 00:52:57 89° 291° (WNW) 00:57:12 145.935-145.965
YUBILEINY 02 Apr 00:49:16 00:57:40 47° 73° (ENE) 01:06:04 435.215
AISAT 02 Apr 00:50:00 00:52:41 15° 270° (W) 00:55:11 437.250
UNISAT 6 02 Apr 00:56:37 01:00:57 41° 289° (WNW) 01:05:19 437.425
SWISSCUBE 02 Apr 00:57:17 00:59:56 15° 62° (ENE) 01:02:47 437.505
50 SAT 02 Apr 00:58:27 00:58:55 10° 273° (W) 00:59:09 437.505
BEESAT 02 Apr 00:59:39 01:02:13 15° 62° (ENE) 01:04:58 436.000
QB50P2 02 Apr 01:04:59 01:09:10 58° 286° (WNW) 01:13:20 145.880/145.840
TIGRISAT 02 Apr 01:05:09 01:09:20 35° 290° (WNW) 01:13:32 435.000
BUGSAT 1 02 Apr 01:11:35 01:15:36 69° 285° (WNW) 01:19:37 437.445
ISS 02 Apr 01:15:35 01:17:53 18° 354° (N) 01:20:12 145.825
POPSAT HIP 1 02 Apr 01:33:15 01:36:58 30° 291° (WNW) 01:40:39 437.405
ESTCUBE 1 02 Apr 01:33:54 01:35:25 11° 273° (W) 01:36:41 437.505/2401.250
TISAT 1 02 Apr 01:35:56 01:39:57 42° 262° (W) 01:43:57 437.305
ANTELSAT 02 Apr 01:38:25 01:41:31 17° 295° (WNW) 01:44:29 437.575/2403.000
PCSat 02 Apr 01:40:28 01:43:53 17° 254° (WSW) 01:47:04 145.827
NANOSAT C BR1 02 Apr 01:42:25 01:45:53 24° 292° (WNW) 01:49:17 145.865
SO-50 02 Apr 01:45:43 01:48:07 14° 31° (NNE) 01:50:40 436.795
ITUPSAT 1 02 Apr 01:46:49 01:51:17 39° 70° (ENE) 01:55:47 437.325
POLYITAN 1 02 Apr 01:50:27 01:53:39 20° 293° (WNW) 01:56:44 437.675
Oscar 19 02 Apr 01:53:50 01:56:41 15° 88° (E) 01:59:46 437.125/150
SPROUT 02 Apr 02:01:40 02:04:55 20° 268° (W) 02:08:04 437.525
SWISSCUBE 02 Apr 02:32:32 02:37:19 68° 259° (WSW) 02:42:08 437.505
BEESAT 02 Apr 02:34:47 02:39:34 70° 258° (WSW) 02:44:23 436.000
Gurwin Techsat 1B 02 Apr 02:41:50 02:42:51 11° 85° (E) 02:44:16 435.225
YUBILEINY 02 Apr 02:46:23 02:54:26 40° 273° (W) 03:02:18 435.215
ISS 02 Apr 02:52:32 02:55:07 21° 14° (NNE) 02:57:42 145.825
RS-15 02 Apr 02:53:54 03:04:31 43° 38° (NE) 03:15:40 29.354- 29.394
O/OREOS (USA 219) 02 Apr 03:05:20 03:06:56 12° 99° (E) 03:08:48 437.305
ITAMSAT 1 02 Apr 03:07:06 03:11:10 24° 93° (E) 03:15:20 435.822/435.867
KKS-1 02 Apr 03:16:44 03:21:06 62° 74° (ENE) 03:25:31 437.445
SO-50 02 Apr 03:24:49 03:29:44 61° 53° (NE) 03:34:37 436.795
ITUPSAT 1 02 Apr 03:25:27 03:29:20 23° 267° (W) 03:33:08 437.325
Oscar 19 02 Apr 03:31:28 03:36:38 68° 286° (WNW) 03:41:46 437.125/150
STARS 02 Apr 03:39:24 03:43:45 70° 74° (ENE) 03:48:07 437.465
VERMONT LUNAR 02 Apr 04:07:34 04:09:26 14° 151° (SSE) 04:11:21 437.305
AIST 1 02 Apr 04:08:38 04:12:32 32° 91° (E) 04:16:28
Gurwin Techsat 1B 02 Apr 04:18:23 04:23:45 87° 104° (ESE) 04:29:05 435.225
ISS 02 Apr 04:28:39 04:31:54 81° 33° (NNE) 04:35:07 145.825
AUBIESAT-1 02 Apr 04:31:50 04:33:21 12° 54° (NE) 04:35:07 437.475
AO-7 02 Apr 04:36:15 04:42:43 26° 92° (E) 04:49:29 29.400- 29.500
O/OREOS (USA 219) 02 Apr 04:41:14 04:45:50 71° 295° (WNW) 04:50:26 437.305
